Location: Dompnac
(44.5644°N, 4.1026°E)
Time: 05:50:03
(UTC+00:00)

NOSS 2-2 (E) - Pass Details

Date: 26 January 2021
Orbit: 462 x 1744 km, 63.3° (Epoch: 05 March)

Event Time Altitude Azimuth Distance (km) Brightness Sun altitude
Rises 19:16:41 0° 325° (NW) 3,132 7.6 -27.1°
Reaches altitude 10° 19:18:49 10° 331° (NNW) 2,356 6.8 -27.4°
Enters shadow 19:23:04 48° 13° (NNE) 1,216 4.8 -28.2°
